カタログに戻る

STARLINK-3589

運用中通信VLEO
NORAD 51997·PAYLOAD·🇺🇸 United States

打ち上げ Mar 9, 2022 から Cape Canaveral Space Force Station

Loading…

次のパス (今後24時間)

TLE

最新Source: CelesTrak SupGP

元期: Sep 14, 2026, 22:05 UTC

1 51997C 22025AT  26257.92062500  .00029108  00000+0  86005-3 0  2576
2 51997  53.1565 235.5506 0001367  95.9413 327.9277 15.34374166    10

AllMySatでSTARLINK-3589をリアルタイム追跡

Download on the App Store